Regional Weather Roundup
Issued by NWS Boston, MA

Home | Current Version | Previous Version | Text Only | Print | Product List | Glossary On
Versions: 1 2 3 4 5 6 7 8 9 10 11 12 13 14 15 16 17 18 19 20 21 22 23 24 25 26 27 28 29 30 31 32 33 34 35 36 37 38 39 40 41 42 43 44 45 46 47 48 49 50
000
ASUS41 KBOX 051510
RWRBOX

REGIONAL WEATHER ROUNDUP
NATIONAL WEATHER SERVICE TAUNTON MA
1100 AM EDT TUE MAY 05 2015

NOTE:  "FAIR" INDICATES FEW OR NO CLOUDS BELOW 12,000 FEET WITH NO
SIGNIFICANT WEATHER AND/OR OBSTRUCTIONS TO VISIBILITY.  THE FOLLOWING
OBSERVATION LOCATIONS DO NOT REPORT PRESENT WEATHER...PROVINCETOWN...
SMITHFIELD...BLOCK ISLAND...KEENE...AND OXFORD.

MAZALL-051600-
EASTERN MASSACHUSETTS

CITY           SKY/WX    TMP DP  RH WIND       PRES   REMARKS
BOSTON         LGT RAIN  62  57  83 S5        30.20R
BEVERLY        CLOUDY    68  54  60 CALM      30.19R
LAWRENCE       PTSUNNY   71  50  47 NW5       30.21R
BEDFORD        CLOUDY    65  58  78 SW5       30.19R
BLUE HILL        N/A     61  56  83 SW5       30.20R
NORWOOD        CLOUDY    65  57  75 CALM      30.21R
MARSHFIELD     CLOUDY    66  55  68 N6        30.22R
PLYMOUTH       PTSUNNY   70  52  52 NE9       30.21R
TAUNTON        CLOUDY    70  53  54 N5        30.20R
NEW BEDFORD    PTSUNNY   73  52  47 N7        30.19R
$$

MAZALL-051600-
CAPE COD AND THE ISLANDS

CITY           SKY/WX    TMP DP  RH WIND       PRES   REMARKS
FALMOUTH       PTSUNNY   72  52  49 N6G13     30.20S
HYANNIS        PTSUNNY   70  50  49 NW15      30.18S
CHATHAM        NOT AVBL
PROVINCETOWN   CLOUDY    57  48  72 NW7       30.21R
NANTUCKET      MOSUNNY   61  49  64 W13       30.21S
MARTHAS VNYRD  PTSUNNY  N/A N/A N/A NW7       30.20S
$$

MAZALL-051600-
CENTRAL AND WESTERN MASSACHUSETTS

CITY           SKY/WX    TMP DP  RH WIND       PRES   REMARKS
WORCESTER      CLOUDY    62  56  80 W6        30.23R
FITCHBURG      PTSUNNY   70  51  51 CALM      30.21R
ORANGE         MOSUNNY   73  48  41 N9        30.20S
SPRINGFIELD    NOT AVBL
WESTFIELD      PTSUNNY   71  53  52 S5        30.21S
NORTH ADAMS    MOSUNNY   70  46  42 VRB6      30.23S
PITTSFIELD     MOSUNNY   70  49  47 NW12      30.23R
$$

RIZALL-051600-
RHODE ISLAND

CITY           SKY/WX    TMP DP  RH WIND       PRES   REMARKS
PROVIDENCE     PTSUNNY   72  53  51 N10       30.21R
NEWPORT        PTSUNNY   70  53  54 N14       30.20R
BLOCK ISLAND   MOSUNNY   63  48  59 SW8       30.23R
SMITHFIELD     PTSUNNY   66  48  52 NW7       30.22R
WESTERLY       MOSUNNY   68  50  52 SW6       30.21R
$$

CTZALL-051600-
CONNECTICUT

CITY           SKY/WX    TMP DP  RH WIND       PRES   REMARKS
BRADLEY INTL   CLOUDY    72  52  49 N7        30.21R
HARTFORD       CLOUDY    72  53  51 N8        30.21R
BRIDGEPORT     PTSUNNY   69  51  52 SW8       30.21R
DANBURY        MOSUNNY   74  53  48 VRB6      30.23S
GROTON         CLOUDY    62  49  62 SW8       30.20R
NEW HAVEN      PTSUNNY   67  52  58 S5        30.21R
CHESTER        NOT AVBL
MERIDEN        PTSUNNY   77  53  43 N8        30.21S
WILLIMANTIC    PTSUNNY   72  52  49 NW9       30.22R
OXFORD         MOSUNNY   72  54  53 N8        30.23F
$$

MEZ002-015-021-024-NHZ003-005-008-011-012-014-VTZ005-008-051600-
NORTHERN NEW ENGLAND

CITY           SKY/WX    TMP DP  RH WIND       PRES   REMARKS
PORTLAND ME    PTSUNNY   73  44  35 N13       30.19R
BANGOR ME      CLOUDY    62  37  39 W9        30.16R
CONCORD NH     SUNNY     74  41  30 N13       30.20S
MANCHESTER NH  PTSUNNY   74  44  34 N17G23    30.18R
NASHUA NH      MOSUNNY   73  48  41 N8        30.20R
PORTSMOUTH NH  PTSUNNY   75  46  35 N8G18     30.17R
JAFFREY NH     MOSUNNY   71  44  37 MISG      30.22R
KEENE NH       MOSUNNY   72  43  35 NW9       30.22R
BURLINGTON VT  PTSUNNY   63  30  28 N12       30.28R
MT. WASHINGTON NOT AVBL
$$

NYZ052-076-051600-
EASTERN NEW YORK

CITY           SKY/WX    TMP DP  RH WIND       PRES   REMARKS
ALBANY         PTSUNNY   71  52  50 NW5       30.24R
NEW YORK CITY  PTSUNNY   73  52  47 N6        30.21R
$$

ANZALL-051600-
MARINE OBSERVATIONS

STATION/POSITION TIME  TEMP    WIND        PRES    VSBY  WAVE
                       AIR SEA DIR/SP/G                  HT/PER
                 (UTC) (F)     (DEG/KT/KT) (MB)    (MI)  (FT/S)
BOSTON BUOY      1450   54 47  220/  4/  4   N/A           2/11
BUZZARDS BAY     1400          240/ 10/ 10   N/A
NANTUCKET SOUND  1450   52 50  240/ 10/ 12   N/A           1/ 3
MASS BAY-STELLWA 1404   50 47  190/  6/  8   N/A    1 3/4  2/ 6
ISLE OF SHOALS   1400   68     320/ 14/ 15   N/A
S OF BLOCK IS    1408      47                N/A           4/ 6
$$

......................KEY.........................
  SKY/WX - SKY CONDITION/PRESENT WEATHER
  TMP    - TEMPERATURE IN FAHRENHEIT
  DWPT   - DEWPOINT IN FAHRENHEIT
  RH     - RELATIVE HUMIDITY IN PERCENT
  WIND   - DIRECTION AND SPEED IN MPH
  PRES   - MEAN SEA LEVEL PRESSURE IN INCHES OF HG
  WCI    - WIND CHILL INDEX
  VSB    - VISIBILITY IN MILES
  HX     - HEAT INDEX
  TC     - TEMPERATURE IN CELSIUS
  VRB    - VARIABLE WIND DIRECTION
  N/A    - NOT AVAILABLE



USA.gov is the U.S. government's official web portal to all federal, state and local government web resources and services.